www.pogodaiklimat.ru

Погода и климат >> Архив погоды >> Индия >> Jagdalpur


ПОГОДА в Jagdalpur

  • Прогноз погоды в Jagdalpur
  • Монитор погоды в Jagdalpur
  • Климат города

АРХИВ ПОГОДЫ в Jagdalpur

Время (UTC), дата Ветер
(напр.,м/с)
 
Видим.   Явления Облачность Т
(С)
Тd
(С)
f
(%)
Тe
(С)
Тes
(С)
Комфортность P
(гПа)
Po
(гПа)
Тmin
(С)
Tmax
(С)
R
(мм)
R24
(мм)
S
(см)
09 19.09 штиль 0 4000 м {гроза, дождь} 8/4 750 м
[Cb calv As trans]
+24.2 +23.9 98 +33 +39 очень
душно
1003.2 942.5 18
12 19.09 СЗ 1 4000 м мгла {гроза, дождь} 10/5 750 м
[Sc As trans]
+27.0 +24.3 85 +38 +38 очень
душно
1002.5 942.2 +29.9 18
15 19.09 штиль 0 4000 м 3/0
[Ac trans]
+24.8 +23.1 90 +33 +33 очень
душно
1004.9 944.1 18
18 19.09 штиль 0 4000 м 8/4 750 м
[Sc Ac trans]
+24.1 +22.5 91 +32 +32 очень
душно
1004.4 943.6 18
21 19.09 штиль 0 4000 м 8/5 750 м
[Sc Ac trans]
+23.6 +22.1 91 +30 +30 очень
душно
1003.8 942.9 18
00 20.09 штиль 0 4000 м 9/5 750 м
[Sc As trans]
+23.2 +22.3 95 +32 +32 очень
душно
1002.8 941.9 18
03 20.09 С 2 2000 м мгла 10/8 450 м
[St As trans]
+23.6 +21.8 90 +30 +31 очень
душно
1004.3 943.3 +22.1 18
06 20.09 С 1 2000 м мгла {дождь} 10/6 450 м
[St As trans]
+25.2 +23.5 90 +34 +38 очень
душно
1002.9 942.5 0.4
09 20.09 СЗ 1 4000 м 10/6 450 м
[St As trans]
+27.6 +23.1 77 +37 +39 очень
душно
999.0 939.2 0.4
12 20.09 С 2 2000 м слабый дождь {ливн. осадки} 10/6 450 м
[Frnb As op]
+23.8 +23.2 96 +32 +32 очень
душно
999.1 938.5 +27.8 16
15 20.09 СЗ 1 2000 м слабый дождь 10/6 360 м
[Frnb As op]
+23.0 +23.0 100 +32 +32 очень
душно
999.5 938.7 39
18 20.09 С 2 2000 м слабая морось {дождь} 10/6 360 м
[Frnb As op]
+23.0 +22.4 96 +31 +31 очень
душно
999.4 938.6 54
21 20.09 З 1 4000 м ясно +26.2 +22.3 79 +34 +34 очень
душно
1006.5 937.1
00 21.09 С 2 2000 м слабый дождь 10/6 360 м
[Frnb As op]
+23.0 +22.7 98 +32 +32 очень
душно
997.0 936.3 61
03 21.09 СЗ 2 2000 м дождь 10/6 450 м
[Frnb As op]
+23.0 +23.0 100 +32 +33 очень
душно
999.2 938.4 +21.7 77
06 21.09 З 2 2000 м дождь 10/6 360 м
[Frnb As op]
+22.0 +22.0 100 +29 +30 очень
душно
1001.0 939.8 22
09 21.09 ЮЗ 3 4000 м в посл. час дождь 10/6 300 м
[St As trans]
+22.0 +21.6 98 +29 +30 очень
душно
1000.8 939.6 33
12 21.09 Ю 4 4000 м в посл. час дождь 10/8 360 м
[St As op]
+22.0 +21.4 96 +29 +29 очень
душно
1002.4 941.1 +23.4 33
15 21.09 Ю 4 4000 м {дождь} 10/8 360 м
[St As trans]
+21.0 +19.8 93 +26 +26 душно 1005.9 944.3 33
18 21.09 Ю 4 4000 м {дождь} 9/6 360 м
[St Ac trans]
+20.8 +19.6 93 +26 +26 душно 1007.0 945.3 33
21 21.09 З 1 4000 м ясно +27.8 +21.5 69 +36 +36 очень
душно
1005.7 945.3
00 22.09 Ю 1 4000 м 4/0
[Ac trans]
+20.0 +19.4 96 +24 +24 комфорт 1007.9 945.9 33
03 22.09 штиль 0 4000 м 5/3 750 м
[Sc Ac trans]
+24.8 +21.3 81 +31 +37 очень
душно
1009.9 948.9 +18.9
06 22.09 Ю 1 4000 м 6/4 450 м
[St Ac trans]
+28.4 +20.8 63 +35 +46 очень
душно
1009.7 949.4
09 22.09 ЮЗ 2 4000 м 8/4 750 м
[Sc Ac trans]
+30.0 +19.7 54 +36 +41 очень
душно
1007.5 947.5
12 22.09 ЮЗ 1 4000 м 6/3 750 м
[Sc As trans]
+27.4 +21.6 71 +35 +35 очень
душно
1007.8 947.4 +30.2
15 22.09 штиль 0 4000 м 4/4 750 м
[Sc]
+24.6 +22.3 87 +32 +32 очень
душно
1010.7 949.5
18 22.09 штиль 0 4000 м 9/5 750 м
[Sc As trans]
+23.8 +22.3 91 +31 +31 очень
душно
1011.9 950.5
21 22.09 штиль 0 4000 м 9/5 750 м
[Sc As trans]
+23.2 +22.0 93 +32 +32 очень
душно
1011.3 949.7
00 23.09 штиль 0 4000 м 9/6 750 м
[Sc Ac trans]
+23.0 +22.1 95 +31 +31 очень
душно
1011.8 950.2
03 23.09 Ю 1 4000 м 3/3 750 м
[Sc]
+27.2 +21.4 71 +35 +40 очень
душно
1012.6 951.9 +22.4
06 23.09 ЮЗ 1 4000 м 4/4 750 м
[Cu Sc]
+30.0 +21.3 60 +38 +51 опасность
солнечного
удара
1012.1 951.9
09 23.09 СЗ 2 4000 м 4/4 750 м
[Cu Sc]
+31.4 +22.0 57 +40 +48 очень
душно
1009.1 949.4
12 23.09 З 1 4000 м 4/3 750 м
[Cu Sc Ci fib]
+29.0 +21.8 65 +37 +37 очень
душно
1008.9 948.7 +32.1
15 23.09 штиль 0 4000 м 9/4 750 м
[Sc Ac trans]
+27.0 +23.6 82 +37 +37 очень
душно
1011.6 950.8
18 23.09 штиль 0 4000 м 6/3 750 м
[Sc Ac trans]
+25.6 +23.3 87 +34 +34 очень
душно
1012.2 951.1
21 23.09 Ю 2 2000 м мгла 10/3 300 м
[Frnb Ac As]
+27.0 +25.6 92 +40 +40 очень
душно
1008.6 950.3 0.3
00 24.09 штиль 0 4000 м 9/4 750 м
[Sc Ac trans]
+24.4 +22.4 89 +32 +32 очень
душно
1011.1 949.9
03 24.09 С 1 4000 м мгла 3/3 600 м
[Sc]
+27.8 +23.3 77 +38 +43 очень
душно
1012.1 951.5 +23.4
06 24.09 З 1 4000 м 4/4 600 м
[Cu Sc]
+30.0 +23.2 67 +40 +53 опасность
солнечного
удара
1010.8 950.7
09 24.09 С 1 4000 м гроза без осадков {дождь} 9/6 750 м
[Cb cap Ac trans]
+23.7 +22.3 92 +31 +34 очень
душно
1010.2 948.9 13
12 24.09 ЮВ 1 4000 м {гроза, дождь} 10/6 600 м
[Cu Sc As trans]
+24.2 +23.0 93 +32 +32 очень
душно
1009.9 948.9 +31.3 13
15 24.09 штиль 0 4000 м 4/0
[Ac trans]
+24.5 +23.5 94 +33 +33 очень
душно
1011.5 950.3 13
18 24.09 штиль 0 4000 м 3/0
[Ac trans]
+24.0 +23.4 96 +32 +32 очень
душно
1011.9 950.5 13
21 24.09 штиль 0 4000 м 5/3 750 м
[Sc Ac trans]
+23.6 +23.0 96 +31 +31 очень
душно
1011.0 949.6 13
00 25.09 штиль 0 2000 м дымка 5/3 750 м
[Sc Ac trans]
+23.2 +22.3 95 +32 +32 очень
душно
1010.6 949.2 13
03 25.09 штиль 0 2000 м мгла {туман} 8/6 450 м
[St]
+25.0 +23.3 90 +33 +36 очень
душно
1011.5 950.3 +21.7
06 25.09 СВ 1 4000 м 6/6 750 м
[Cu Sc]
+29.2 +21.7 64 +37 +46 очень
душно
1010.5 950.4
09 25.09 штиль 0 4000 м 4/4 750 м
[Cu Sc]
+32.0 +23.3 60 +43 +52 опасность
перегрева
1006.8 947.2
12 25.09 штиль 0 4000 м 9/5 750 м
[Sc As trans]
+28.0 +23.8 78 +39 +39 очень
душно
1006.8 946.5 +32.3
15 25.09 штиль 0 4000 м зарница 10/5 750 м
[Cb cap As trans]
+26.0 +23.2 85 +35 +35 очень
душно
1009.0 948.2
18 25.09 штиль 0 4000 м 8/3 750 м
[Sc Ac trans]
+25.4 +23.4 89 +34 +34 очень
душно
1009.7 948.8
21 25.09 штиль 0 4000 м 4/0
[Ac trans]
+24.6 +23.2 92 +33 +33 очень
душно
1008.2 947.2
00 26.09 штиль 0 4000 м 4/0
[Ac trans Ci fib]
+24.0 +22.8 93 +32 +32 очень
душно
1008.4 947.2
03 26.09 штиль 0 2000 м мгла {туман} 8/5 600 м
[Sc Ac trans]
+26.4 +23.9 86 +36 +39 очень
душно
1010.7 949.9 +22.9
06 26.09 С 1 4000 м {туман} 6/6 750 м
[Sc diur, vesp]
+28.8 +23.4 73 +39 +48 очень
душно
1009.7 949.4

 

Местоположение метеостанции Jagdalpur (Chhattisgarh, Индия): широта 19.08 долгота 82.03 высота над уровнем моря 553 м.

В архиве по умолчанию представлена погода в Jagdalpur за последнюю неделю. Архивные данные за месяц целиком и за предыдущие месяцы, начиная с января 2011 года, Вы можете получить, выбрав интересующий диапазон дат из раскрывающегося списка и нажав кнопку "Ввод!".


*Определитесь, кто Вы:
робот инопланетянин человек

Внимание! Время в таблицах - всемирное. Для получения местного времени необходимо прибавить поправку, которая в Jagdalpur равна 5.5 ч.

Смотрите также архив погоды в соседних городах и на ближайших метеорологических станциях:

Погода в Koraput (Orissa, Индия) (78 км)
Погода в Bhawanipatna (Orissa, Индия) (153 км)
Погода в Titlagarh (Orissa, Индия) (190 км)
Погода в Visakhapatnam (Andhra Pradesh, Индия) (197 км)
Погода в Bhadrachalam (Telangana, Индия) (198 км)
Погода в Tuni (Andhra Pradesh, Индия) (200 км)
Погода в Visakhapatnam Walt (Andhra Pradesh, Индия) (204 км)
Погода в Kalingapatam (Andhra Pradesh, Индия) (236 км)
Погода в Kakinada (Andhra Pradesh, Индия) (238 км)
Погода в Raipur (Chhattisgarh, Индия) (242 км)

Пояснения к столбцам:

Ветер - указаны скорость ветра в м/с - средняя за 10 мин, порывы в срок и между сроками (в фигурных скобках) и направление, откуда дует ветер: С - северный, СВ - северо-восточный, В - восточный, ЮВ - юго-восточный, Ю - южный, ЮЗ - юго-западный, З - западный, СЗ - северо-западный.
Видимость - горизонтальная дальность видимости в метрах или километрах. При видимости от 1 до 10 км при отсутствии осадков обычно наблюдается дымка, при ухудшении видимости до 1 км и менее - туман. В сухую погоду видимость может ухудшаться дымом, пылью или мглою.
Явления - указаны атмосферные явления, наблюдавшиеся в срок или в последний час перед сроком; фигурными скобками обозначены явления, наблюдавшиеся между сроками (за 1-3 часа до срока); квадратными скобками обозначены град или гололедные отложения с указанием их диаметра в мм.
Облачность - указаны через наклонную черту общая и нижняя облачность в баллах и высота нижней границы облаков в метрах; квадратными скобками обозначены формы облаков: Ci - перистые, Cs - перисто-слоистые, Cc - перисто-кучевые, Ac - высококучевые, As - высокослоистые, Sc - слоисто-кучевые, Ns - слоисто-дождевые, Cu - кучевые, Cb - кучево-дождевые. Подробнее классификацию облаков см. в Атласе облаков (PDF).
T - Температура воздуха - температура, измеренная на высоте 2 м над землей.
Td - Температура точки росы - температура, при понижении до которой содержащийся в воздухе водяной пар достигнет насыщения.
f - Относительная влажность воздуха - влажноcть воздуха, измеренная на высоте 2 м над землей.
Te - Эффективная температура - температура, которую ощущает одетый по сезону человек в тени. Характеристика душности погоды. При расчете учитывается влияние влажности воздуха и скорости ветра на теплоощущения человека.
Tes - Эффективная температура на солнце - температура, которую ощущает человек, с поправкой на солнечный нагрев. Характеристика знойности погоды. Зависит от высоты солнца над горизонтом, облачности и скорости ветра. Ночью, в пасмурную погоду, а также при ветре 12 м/с и более поправка равна нулю.
P - Атмосферное давление - приведенное к уровню моря атмосферное давление.
Po - Атмосферное давление - измеренное на уровне метеостанции атмосферное давление.
Tmin - Минимальная температура - минимум температуры воздуха на высоте 2 м над землей.
Tmax - Максимальная температура - максимум температуры воздуха на высоте 2 м над землей.
R - Количество осадков - Количество выпавших осадков за период времени, мм. При наведении курсора мыши на число - период времени, за который выпало указанное количество осадков.
R24 - Количество осадков - Количество выпавших осадков за 24 часа, мм.
S - Снежный покров - Высота снежного покрова, см. При наведении курсора мыши на число - состояние снежного покрова и степень покрытия местности в баллах.